Ketchikan, AK

7:46 AM AKST on November 15, 2018 (GMT -0900)
Ketchikan International

Weather History for PAKT - September, 2017

Change the Weather History Date:

Tuesday, September 19, 2017

  Actual Average Record
Temperature  
Mean Temperature 50 °F -  
Max Temperature 54 °F 60 °F 72 °F (1976)
Min Temperature 46 °F 45 °F 37 °F (2004)
Degree Days  
Heating Degree Days 15    
Moisture  
Dew Point 46 °F    
Average Humidity 88    
Maximum Humidity 100    
Minimum Humidity 72    
Precipitation  
Precipitation 0.00 in - - ()
Sea Level Pressure  
Sea Level Pressure 29.77 in    
Wind  
Wind Speed 2 mph (NW)    
Max Wind Speed 8 mph    
Max Gust Speed -    
Visibility 10 miles    
Events Rain    
Averages and records for this station are not official NWS values.
T = Trace of Precipitation, MM = Missing Value Source: NWS Daily Summary

Daily Weather History Graph

Daily Weather History Graph

Search for Another Location

Airport or City:

Astronomy

Sep. 19, 2017 Rise Set
Actual Time 6:27 AM AKDT 6:52 PM AKDT
Civil Twilight 5:50 AM AKDT 7:28 PM AKDT
Nautical Twilight 5:06 AM AKDT 8:12 PM AKDT
Astronomical Twilight 4:19 AM AKDT 8:59 PM AKDT
Moon 5:35 AM AKDT (9/19) 7:03 PM AKDT (9/19)
Length of Visible Light 13h 38m
Length of Day
12h 24m
Waning Crescent, 0% of the Moon is Illuminated
Sep 19
Waning Crescent
Sep 19
New
Sep 27
First Quarter
Oct 5
Full
Oct 12
Last Quarter

Hourly Weather History & Observations

Time (AKDT) Temp. Dew Point Humidity Pressure Visibility Wind Dir Wind Speed Gust Speed Precip Events Conditions
12:53 AM 48.9 °F 46.9 °F 93% 29.74 in 10.0 mi Calm Calm - N/A   Overcast
1:53 AM 48.0 °F 46.0 °F 93% 29.74 in 10.0 mi Calm Calm - N/A   Overcast
2:53 AM 48.0 °F 46.0 °F 93% 29.73 in 10.0 mi Calm Calm - N/A   Mostly Cloudy
3:53 AM 46.9 °F 44.1 °F 90% 29.73 in 10.0 mi Calm Calm - N/A   Overcast
4:53 AM 46.9 °F 44.1 °F 90% 29.73 in 10.0 mi Calm Calm - N/A   Overcast
5:53 AM 46.0 °F 44.1 °F 93% 29.73 in 10.0 mi Calm Calm - N/A   Overcast
6:14 AM 46.4 °F 44.6 °F 93% 29.73 in 10.0 mi Calm Calm - N/A   Overcast
6:53 AM 46.4 °F 44.6 °F 93% 29.73 in 10.0 mi Calm Calm - N/A   Overcast
7:53 AM 46.4 °F 46.4 °F 100% 29.73 in 10.0 mi Calm Calm - N/A   Overcast
8:53 AM 50.0 °F 48.2 °F 94% 29.73 in 10.0 mi Calm Calm - N/A   Overcast
9:53 AM 51.8 °F 48.2 °F 88% 29.73 in 10.0 mi WNW 3.5 mph - N/A   Overcast
10:53 AM 53.6 °F 48.2 °F 82% 29.74 in 10.0 mi NW 4.6 mph - N/A   Overcast
11:53 AM 53.6 °F 44.6 °F 72% 29.75 in 10.0 mi NW 5.8 mph - N/A   Overcast
12:53 PM 53.6 °F 46.4 °F 77% 29.75 in 10.0 mi NNW 5.8 mph - N/A   Overcast
1:53 PM 53.6 °F 48.2 °F 82% 29.76 in 10.0 mi WNW 4.6 mph - N/A Rain Light Rain
2:53 PM 54.0 °F 46.9 °F 77% 29.77 in 10.0 mi NW 5.8 mph - 0.00 in Rain Light Rain
3:53 PM 53.1 °F 48.0 °F 83% 29.78 in 10.0 mi NW 4.6 mph - 0.00 in   Overcast
4:53 PM 54.0 °F 46.9 °F 77% 29.79 in 10.0 mi NNW 6.9 mph - N/A   Overcast
5:53 PM 54.0 °F 46.0 °F 75% 29.81 in 10.0 mi North 4.6 mph - N/A   Overcast
6:53 PM 52.0 °F 48.0 °F 86% 29.82 in 10.0 mi NW 3.5 mph - N/A   Mostly Cloudy
7:53 PM 50.0 °F 46.9 °F 89% 29.84 in 10.0 mi Calm Calm - N/A   Mostly Cloudy
8:53 PM 48.0 °F 46.9 °F 96% 29.84 in 10.0 mi WNW 4.6 mph - N/A   Clear
9:53 PM 48.0 °F 46.9 °F 96% 29.85 in 10.0 mi WNW 4.6 mph - N/A   Clear
10:53 PM 46.9 °F 46.9 °F 100% 29.87 in 10.0 mi NW 6.9 mph - N/A   Clear
11:53 PM 48.0 °F 46.0 °F 93% 29.87 in 10.0 mi WNW 8.1 mph - N/A   Clear